Home > Weather > St. Andrä > Past weeks

Flag for Austria Weather for the Past 2 Weeks in St. Andrä, Carinthia, Austria

Now
32 °F

Snow. Passing clouds.


Feels Like: 32 °F
Forecast: 25 / 44 °F
Wind: No wind

Location: Klagenfurt-Flughafen

Current Time: Feb 13, 2016 at 4:04:12 AM

Latest Report: Feb 13, 2016 at 3:20 AM


Visibility: 1 mi

Pressure: 29.39 "Hg

Humidity: 100%

Dew point: 32 °F

Location of St. AndräLocation

Historic Weather in St. Andrä — Graph

°F

St. Andrä Temperature Yesterday

Maximum temperature yesterday: 34 °F (at 1:50 PM)
Minimum temperature yesterday: 27 °F (at 12:20 AM)
Average temperature yesterday: 31 °F

High & Low Weather Summary for the Past Weeks

 TemperatureHumidityPressure
High55 °F (Feb 1, 2:50 PM)100% (Jan 29, 2:20 AM)30.45 "Hg (Jan 29, 2:20 AM)
Low23 °F (Jan 30, 6:50 AM)32% (Feb 4, 3:50 PM)29.21 "Hg (Feb 10, 4:20 AM)
Average36 °F88%29.99 "Hg
* Reported Jan 29 2:20 AM — Feb 13 2:20 AM, St. Andrä, Weather by CustomWeather, © 2016

Note: Actual official high and low records may vary slightly from our data, if they occured in-between our weather recording intervals... More about our weather records

Advertising

St. Andrä Weather History for the Previous 24 Hours

 ConditionsComfort  
Time TempWeatherWind HumidityBarometerVisibility
2:20 AM
Sat, Feb 13
32 °FSnow. Passing clouds.1 mph100%29.39 "Hg1 mi
1:50 AM32 °FChilly.1 mph100%29.42 "Hg1 mi
1:20 AM32 °FSnow. Partly cloudy.1 mph100%29.42 "Hg2 mi
12:50 AM32 °FLight snow. Passing clouds.3 mph100%29.45 "Hg2 mi
12:20 AM32 °FLight snow. Passing clouds.1 mph100%29.47 "Hg2 mi
11:50 PM
Fri, Feb 12
34 °FSnow flurries. Passing clouds.1 mph93%29.47 "Hg3 mi
10:20 PM34 °FLow clouds.2 mph93%29.50 "Hg6 mi
9:50 PM34 °FLow clouds.1 mph93%29.50 "Hg6 mi
9:20 PM34 °FLow clouds.1 mph93%29.50 "Hg6 mi
8:50 PM34 °FLow clouds.1 mph93%29.50 "Hg5 mi
7:50 PM32 °FSnow flurries. Low clouds.1 mph100%29.53 "HgN/A
7:20 PM32 °FPartly cloudy.1 mph100%29.56 "Hg6 mi
6:50 PM32 °FPartly cloudy.1 mph100%29.53 "Hg6 mi
6:20 PM32 °FSnow flurries. Passing clouds.1 mph100%29.56 "Hg6 mi
5:50 PM32 °FSnow flurries. Passing clouds.2 mph100%29.56 "Hg6 mi
5:20 PM32 °FSnow flurries. Partly sunny.2 mph100%29.56 "Hg4 mi
4:50 PM34 °FSnow flurries. Broken clouds.2 mph93%29.59 "Hg5 mi
4:20 PM34 °FSnow flurries. Broken clouds.1 mph93%29.59 "Hg5 mi
3:50 PM34 °FSnow flurries. Broken clouds.1 mph93%29.62 "Hg5 mi
3:20 PM34 °FSnow flurries. Broken clouds.1 mph93%29.62 "Hg5 mi
2:50 PM34 °FSnow flurries. Broken clouds.1 mph93%29.62 "Hg4 mi
2:20 PM34 °FLight snow. Fog.1 mph93%29.62 "Hg3 mi
1:50 PM34 °FLight snow. Fog.1 mph93%29.65 "Hg3 mi
1:20 PM32 °FLight snow. Ice fog.1 mph100%29.65 "Hg2 mi
12:50 PM32 °FLight mixture of precip. Broken clouds.2 mph93%29.68 "Hg2 mi
12:20 PM32 °FLight mixture of precip. Partly sunny.2 mph93%29.68 "Hg2 mi
11:50 AM32 °FLight mixture of precip. Partly sunny.2 mph93%29.71 "Hg1 mi
11:20 AM30 °FLight mixture of precip. Partly sunny.2 mph100%29.71 "Hg1 mi
10:50 AM30 °FLight mixture of precip. Partly sunny.2 mph100%29.71 "Hg1 mi
10:20 AM30 °FSleet. Cloudy.2 mph100%29.71 "Hg1 mi
9:50 AM30 °FLight mixture of precip. Partly sunny.1 mph100%29.74 "Hg1 mi
9:20 AM30 °FLight snow. Partly sunny.1 mph100%29.74 "Hg4 mi
8:50 AM30 °FPartly sunny.1 mph93%29.74 "Hg4 mi
8:20 AM30 °FPartly sunny.2 mph93%29.74 "Hg4 mi
7:50 AM30 °FLight freezing rain. Partly sunny.5 mph93%29.74 "Hg3 mi
7:20 AM30 °FLight freezing rain. Partly sunny.3 mph93%29.74 "Hg2 mi
6:50 AM30 °FLight freezing rain. Passing clouds.1 mph100%29.74 "Hg1 mi
6:20 AM30 °FPassing clouds.1 mph100%29.74 "Hg1 mi
5:50 AM30 °FPassing clouds.1 mph93%29.74 "Hg1 mi
5:20 AM28 °FLight freezing rain. Passing clouds.2 mph100%29.74 "Hg1 mi
4:50 AM28 °FLight freezing rain. Passing clouds.3 mph100%29.77 "Hg1 mi
Weather by CustomWeather, © 2016

See weather overviewHow to use our weather pages